Time,TemperatureF,DewpointF,PressureIn,WindDirection,WindDirectionDegrees,WindSpeedMPH,WindSpeedGustMPH,Humidity,HourlyPrecipIn,Conditions,Clouds,dailyrainin,SoftwareType,DateUTC
2013-04-28 00:02:00,46.0,46.0,-100.00,WSW,250,0.0,0.0,99,0.00,,,-99.99,,2013-04-28 05:02:00,
2013-04-28 00:12:00,46.0,46.0,-100.00,WSW,250,0.0,0.0,99,0.00,,,-99.99,,2013-04-28 05:12:00,
2013-04-28 00:22:00,46.0,46.0,-100.00,WSW,250,0.0,0.0,99,0.00,,,-99.99,,2013-04-28 05:22:00,
2013-04-28 00:42:00,42.0,42.0,-100.00,NNE,15,0.0,1.0,99,0.00,,,-99.99,,2013-04-28 05:42:00,
2013-04-28 00:52:00,44.0,44.0,-100.00,NW,310,0.0,2.0,99,0.00,,,-99.99,,2013-04-28 05:52:00,
2013-04-28 01:01:00,44.0,44.0,-100.00,NW,310,0.0,0.0,99,0.00,,,-99.99,,2013-04-28 06:01:00,
2013-04-28 01:12:00,44.0,44.0,-100.00,NW,310,0.0,0.0,99,0.00,,,-99.99,,2013-04-28 06:12:00,
2013-04-28 01:21:00,45.0,45.0,-100.00,NNW,345,1.0,2.0,99,0.00,,,-99.99,,2013-04-28 06:21:00,
2013-04-28 01:32:00,46.0,46.0,-100.00,NW,325,1.0,1.0,99,0.00,,,-99.99,,2013-04-28 06:32:00,
2013-04-28 01:42:00,46.0,46.0,-100.00,NNW,340,2.0,2.0,99,0.00,,,-99.99,,2013-04-28 06:42:00,
2013-04-28 01:52:00,43.0,43.0,-100.00,NNW,345,1.0,2.0,99,0.00,,,-99.99,,2013-04-28 06:52:00,
2013-04-28 02:01:00,45.0,45.0,-100.00,North,350,0.0,1.0,99,0.00,,,-99.99,,2013-04-28 07:01:00,
2013-04-28 02:11:00,47.0,47.0,-100.00,NNW,335,2.0,3.0,99,0.00,,,-99.99,,2013-04-28 07:11:00,
2013-04-28 02:21:00,47.0,47.0,-100.00,NNW,335,2.0,3.0,99,0.00,,,-99.99,,2013-04-28 07:21:00,
2013-04-28 02:31:00,47.0,47.0,-100.00,NNW,335,2.0,3.0,99,0.00,,,-99.99,,2013-04-28 07:31:00,
2013-04-28 02:42:00,47.0,47.0,-100.00,NNW,335,2.0,3.0,99,0.00,,,-99.99,,2013-04-28 07:42:00,
2013-04-28 02:52:00,47.0,47.0,-100.00,NNW,335,2.0,3.0,99,0.00,,,-99.99,,2013-04-28 07:52:00,
2013-04-28 03:42:00,40.0,40.0,-100.00,NW,325,4.0,4.0,99,0.00,,,-99.99,,2013-04-28 08:42:00,
2013-04-28 03:52:00,40.0,40.0,-100.00,NW,325,4.0,4.0,99,0.00,,,-99.99,,2013-04-28 08:52:00,
2013-04-28 04:01:00,40.0,40.0,-100.00,NW,325,4.0,4.0,99,0.00,,,-99.99,,2013-04-28 09:01:00,
2013-04-28 04:11:00,40.0,40.0,-100.00,NW,325,4.0,4.0,99,0.00,,,-99.99,,2013-04-28 09:11:00,
2013-04-28 04:21:00,42.0,42.0,-100.00,North,355,0.0,1.0,99,0.00,,,-99.99,,2013-04-28 09:21:00,
2013-04-28 04:33:00,41.0,41.0,-100.00,East,80,2.0,3.0,99,0.00,,,-99.99,,2013-04-28 09:33:00,
2013-04-28 04:42:00,41.0,41.0,-100.00,East,80,2.0,3.0,99,0.00,,,-99.99,,2013-04-28 09:42:00,
2013-04-28 04:53:00,39.0,39.0,-100.00,West,270,0.0,3.0,99,0.00,,,-99.99,,2013-04-28 09:53:00,
2013-04-28 05:03:00,39.0,39.0,-100.00,West,270,0.0,3.0,99,0.00,,,-99.99,,2013-04-28 10:03:00,
2013-04-28 05:12:00,38.0,38.0,-100.00,WNW,290,2.0,3.0,99,0.00,,,-99.99,,2013-04-28 10:12:00,
2013-04-28 05:22:00,38.0,38.0,-100.00,WNW,290,2.0,3.0,99,0.00,,,-99.99,,2013-04-28 10:22:00,
2013-04-28 05:32:00,39.0,39.0,-100.00,NE,35,1.0,4.0,99,0.00,,,-99.99,,2013-04-28 10:32:00,
2013-04-28 05:42:00,39.0,39.0,-100.00,NE,35,1.0,4.0,99,0.00,,,-99.99,,2013-04-28 10:42:00,
2013-04-28 05:52:00,39.0,39.0,-100.00,NNW,345,1.0,2.0,99,0.00,,,-99.99,,2013-04-28 10:52:00,
2013-04-28 06:02:00,40.0,40.0,-100.00,North,0,1.0,2.0,99,0.00,,,-99.99,,2013-04-28 11:02:00,
2013-04-28 06:11:00,42.0,42.0,-100.00,NNW,340,4.0,4.0,99,0.00,,,-99.99,,2013-04-28 11:11:00,
2013-04-28 06:22:00,42.0,42.0,-100.00,NNW,340,4.0,4.0,99,0.00,,,-99.99,,2013-04-28 11:22:00,
2013-04-28 06:32:00,43.0,43.0,-100.00,NNW,345,4.0,5.0,99,0.00,,,-99.99,,2013-04-28 11:32:00,
2013-04-28 06:42:00,43.0,43.0,-100.00,NNW,345,4.0,5.0,99,0.00,,,-99.99,,2013-04-28 11:42:00,
2013-04-28 06:52:00,43.0,43.0,-100.00,NNW,345,6.0,6.0,99,0.00,,,-99.99,,2013-04-28 11:52:00,
2013-04-28 07:02:00,43.0,43.0,-100.00,North,0,3.0,6.0,99,0.00,,,-99.99,,2013-04-28 12:02:00,
2013-04-28 07:11:00,43.0,43.0,-100.00,North,0,3.0,6.0,99,0.00,,,-99.99,,2013-04-28 12:11:00,
2013-04-28 07:21:00,45.0,45.0,-100.00,North,5,2.0,3.0,99,0.00,,,-99.99,,2013-04-28 12:21:00,
2013-04-28 07:32:00,46.0,46.0,-100.00,NNW,345,1.0,3.0,99,0.00,,,-99.99,,2013-04-28 12:32:00,
2013-04-28 07:42:00,46.0,46.0,-100.00,NNW,345,1.0,3.0,99,0.00,,,-99.99,,2013-04-28 12:42:00,
2013-04-28 07:52:00,48.0,48.0,-100.00,NW,320,2.0,2.0,99,0.00,,,-99.99,,2013-04-28 12:52:00,
2013-04-28 08:02:00,48.0,48.0,-100.00,NW,320,2.0,2.0,99,0.00,,,-99.99,,2013-04-28 13:02:00,
2013-04-28 08:11:00,49.0,49.0,-100.00,NW,305,2.0,4.0,99,0.00,,,-99.99,,2013-04-28 13:11:00,
2013-04-28 08:21:00,50.0,50.0,-100.00,NNW,330,3.0,4.0,99,0.00,,,-99.99,,2013-04-28 13:21:00,
2013-04-28 08:32:00,52.0,-99.9,-100.00,NNE,20,1.0,3.0,-999,0.00,,,-99.99,,2013-04-28 13:32:00,
2013-04-28 08:42:00,52.0,-99.9,-100.00,NNE,20,1.0,3.0,-999,0.00,,,-99.99,,2013-04-28 13:42:00,
2013-04-28 08:52:00,53.0,-99.9,-100.00,NNW,335,3.0,5.0,-999,0.00,,,-99.99,,2013-04-28 13:52:00,
2013-04-28 09:02:00,53.0,-99.9,-100.00,NNW,335,3.0,5.0,-999,0.00,,,-99.99,,2013-04-28 14:02:00,
2013-04-28 09:11:00,56.0,55.0,-100.00,WNW,285,4.0,6.0,98,0.00,,,-99.99,,2013-04-28 14:11:00,
2013-04-28 09:21:00,56.0,55.0,-100.00,WNW,285,4.0,6.0,98,0.00,,,-99.99,,2013-04-28 14:21:00,
2013-04-28 09:32:00,58.0,54.0,-100.00,WNW,295,4.0,6.0,87,0.00,,,-99.99,,2013-04-28 14:32:00,
2013-04-28 09:42:00,58.0,54.0,-100.00,WNW,295,4.0,6.0,87,0.00,,,-99.99,,2013-04-28 14:42:00,
2013-04-28 09:52:00,60.0,54.0,-100.00,SW,215,1.0,4.0,80,0.00,,,-99.99,,2013-04-28 14:52:00,
2013-04-28 10:01:00,60.0,54.0,-100.00,SW,215,1.0,4.0,80,0.00,,,-99.99,,2013-04-28 15:01:00,
2013-04-28 10:12:00,61.0,51.0,-100.00,WSW,245,2.0,6.0,70,0.00,,,-99.99,,2013-04-28 15:12:00,
2013-04-28 10:21:00,61.0,51.0,-100.00,WSW,245,2.0,6.0,70,0.00,,,-99.99,,2013-04-28 15:21:00,
2013-04-28 10:32:00,63.0,50.0,-100.00,South,180,5.0,9.0,61,0.00,,,-99.99,,2013-04-28 15:32:00,
2013-04-28 10:42:00,63.0,50.0,-100.00,South,180,5.0,9.0,61,0.00,,,-99.99,,2013-04-28 15:42:00,
2013-04-28 10:53:00,63.0,51.0,-100.00,NW,320,1.0,6.0,64,0.00,,,-99.99,,2013-04-28 15:53:00,
2013-04-28 11:03:00,63.0,51.0,-100.00,NW,320,1.0,6.0,64,0.00,,,-99.99,,2013-04-28 16:03:00,
2013-04-28 11:13:00,64.0,51.0,-100.00,South,180,4.0,10.0,61,0.00,,,-99.99,,2013-04-28 16:13:00,
2013-04-28 11:23:00,64.0,51.0,-100.00,South,180,4.0,10.0,61,0.00,,,-99.99,,2013-04-28 16:23:00,
2013-04-28 11:33:00,65.0,51.0,-100.00,SW,225,6.0,11.0,60,0.00,,,-99.99,,2013-04-28 16:33:00,
2013-04-28 11:42:00,65.0,51.0,-100.00,SW,225,6.0,11.0,60,0.00,,,-99.99,,2013-04-28 16:42:00,
2013-04-28 11:52:00,66.0,51.0,-100.00,SSW,210,6.0,12.0,58,0.00,,,-99.99,,2013-04-28 16:52:00,
2013-04-28 12:02:00,66.0,51.0,-100.00,SSW,210,6.0,12.0,58,0.00,,,-99.99,,2013-04-28 17:02:00,
2013-04-28 12:12:00,67.0,51.0,-100.00,South,185,3.0,11.0,58,0.00,,,-99.99,,2013-04-28 17:12:00,
2013-04-28 12:22:00,67.0,51.0,-100.00,South,185,3.0,11.0,58,0.00,,,-99.99,,2013-04-28 17:22:00,
2013-04-28 12:32:00,67.0,52.0,-100.00,South,170,7.0,14.0,59,0.00,,,-99.99,,2013-04-28 17:32:00,
2013-04-28 12:42:00,67.0,52.0,-100.00,South,170,7.0,14.0,59,0.00,,,-99.99,,2013-04-28 17:42:00,
2013-04-28 12:51:00,68.0,51.0,-100.00,SSW,200,9.0,12.0,55,0.00,,,-99.99,,2013-04-28 17:51:00,
2013-04-28 13:02:00,68.0,51.0,-100.00,SSW,200,9.0,12.0,55,0.00,,,-99.99,,2013-04-28 18:02:00,
2013-04-28 13:12:00,68.0,53.0,-100.00,South,185,6.0,14.0,57,0.00,,,-99.99,,2013-04-28 18:12:00,
2013-04-28 13:22:00,68.0,53.0,-100.00,South,185,6.0,14.0,57,0.00,,,-99.99,,2013-04-28 18:22:00,
2013-04-28 13:32:00,68.0,51.0,-100.00,SSW,205,12.0,14.0,53,0.00,,,-99.99,,2013-04-28 18:32:00,
2013-04-28 13:42:00,68.0,51.0,-100.00,SSW,205,12.0,14.0,53,0.00,,,-99.99,,2013-04-28 18:42:00,
2013-04-28 13:52:00,69.0,51.0,-100.00,SSW,200,3.0,14.0,53,0.00,,,-99.99,,2013-04-28 18:52:00,
2013-04-28 14:02:00,70.0,51.0,-100.00,SSW,205,9.0,16.0,51,0.00,,,-99.99,,2013-04-28 19:02:00,
2013-04-28 14:11:00,70.0,51.0,-100.00,SSW,205,9.0,16.0,51,0.00,,,-99.99,,2013-04-28 19:11:00,
2013-04-28 14:22:00,69.0,51.0,-100.00,South,190,5.0,11.0,51,0.00,,,-99.99,,2013-04-28 19:22:00,
2013-04-28 14:32:00,70.0,51.0,-100.00,South,175,9.0,13.0,51,0.00,,,-99.99,,2013-04-28 19:32:00,
2013-04-28 14:41:00,70.0,51.0,-100.00,South,175,9.0,13.0,51,0.00,,,-99.99,,2013-04-28 19:41:00,
2013-04-28 14:52:00,71.0,52.0,-100.00,WSW,240,9.0,12.0,51,0.00,,,-99.99,,2013-04-28 19:52:00,
2013-04-28 15:02:00,71.0,52.0,-100.00,SSW,200,8.0,12.0,49,0.00,,,-99.99,,2013-04-28 20:02:00,
2013-04-28 15:11:00,72.0,52.0,-100.00,SSE,155,7.0,11.0,49,0.00,,,-99.99,,2013-04-28 20:11:00,
2013-04-28 15:22:00,72.0,52.0,-100.00,SSE,155,7.0,11.0,49,0.00,,,-99.99,,2013-04-28 20:22:00,
2013-04-28 15:32:00,72.0,52.0,-100.00,South,190,10.0,16.0,49,0.00,,,-99.99,,2013-04-28 20:32:00,
2013-04-28 15:41:00,72.0,52.0,-100.00,South,190,10.0,16.0,49,0.00,,,-99.99,,2013-04-28 20:41:00,
2013-04-28 15:52:00,72.0,52.0,-100.00,SSE,160,7.0,14.0,49,0.00,,,-99.99,,2013-04-28 20:52:00,
2013-04-28 16:01:00,72.0,52.0,-100.00,SSE,160,7.0,14.0,49,0.00,,,-99.99,,2013-04-28 21:01:00,
2013-04-28 16:11:00,73.0,52.0,-100.00,South,185,6.0,14.0,47,0.00,,,-99.99,,2013-04-28 21:11:00,
2013-04-28 16:22:00,73.0,52.0,-100.00,South,185,6.0,14.0,47,0.00,,,-99.99,,2013-04-28 21:22:00,
2013-04-28 16:32:00,73.0,53.0,-100.00,South,175,7.0,16.0,50,0.00,,,-99.99,,2013-04-28 21:32:00,
2013-04-28 16:42:00,74.0,52.0,-100.00,SSW,195,9.0,12.0,47,0.00,,,-99.99,,2013-04-28 21:42:00,
2013-04-28 16:52:00,73.0,52.0,-100.00,SSE,160,6.0,16.0,47,0.00,,,-99.99,,2013-04-28 21:52:00,
2013-04-28 17:03:00,73.0,52.0,-100.00,SSE,160,6.0,16.0,47,0.00,,,-99.99,,2013-04-28 22:03:00,
2013-04-28 17:12:00,73.0,53.0,-100.00,South,180,9.0,12.0,48,0.00,,,-99.99,,2013-04-28 22:12:00,
2013-04-28 17:22:00,73.0,53.0,-100.00,South,180,9.0,12.0,48,0.00,,,-99.99,,2013-04-28 22:22:00,
2013-04-28 17:33:00,74.0,53.0,-100.00,South,180,9.0,16.0,46,0.00,,,-99.99,,2013-04-28 22:33:00,
2013-04-28 17:42:00,73.0,53.0,-100.00,SSE,165,7.0,15.0,49,0.00,,,-99.99,,2013-04-28 22:42:00,
2013-04-28 17:52:00,73.0,53.0,-100.00,SSW,205,10.0,14.0,48,0.00,,,-99.99,,2013-04-28 22:52:00,
2013-04-28 18:02:00,73.0,53.0,-100.00,SSW,205,10.0,14.0,48,0.00,,,-99.99,,2013-04-28 23:02:00,
2013-04-28 18:12:00,73.0,53.0,-100.00,South,185,7.0,10.0,49,0.00,,,-99.99,,2013-04-28 23:12:00,
2013-04-28 18:22:00,73.0,53.0,-100.00,SSW,195,8.0,12.0,48,0.00,,,-99.99,,2013-04-28 23:22:00,
2013-04-28 18:32:00,73.0,53.0,-100.00,SSW,195,8.0,12.0,48,0.00,,,-99.99,,2013-04-28 23:32:00,
2013-04-28 18:42:00,73.0,53.0,-100.00,SSW,195,8.0,12.0,48,0.00,,,-99.99,,2013-04-28 23:42:00,
2013-04-28 18:52:00,73.0,53.0,-100.00,South,185,6.0,14.0,50,0.00,,,-99.99,,2013-04-28 23:52:00,
2013-04-28 19:01:00,72.0,53.0,-100.00,South,175,10.0,14.0,50,0.00,,,-99.99,,2013-04-29 00:01:00,
2013-04-28 19:11:00,72.0,53.0,-100.00,South,190,7.0,12.0,50,0.00,,,-99.99,,2013-04-29 00:11:00,
2013-04-28 19:22:00,72.0,53.0,-100.00,South,190,7.0,12.0,50,0.00,,,-99.99,,2013-04-29 00:22:00,
2013-04-28 19:32:00,71.0,53.0,-100.00,South,180,8.0,14.0,51,0.00,,,-99.99,,2013-04-29 00:32:00,
2013-04-28 19:41:00,71.0,53.0,-100.00,South,180,8.0,14.0,51,0.00,,,-99.99,,2013-04-29 00:41:00,
2013-04-28 19:52:00,70.0,53.0,-100.00,South,180,7.0,14.0,54,0.00,,,-99.99,,2013-04-29 00:52:00,
2013-04-28 20:01:00,70.0,53.0,-100.00,South,180,7.0,14.0,54,0.00,,,-99.99,,2013-04-29 01:01:00,
2013-04-28 20:12:00,69.0,53.0,-100.00,South,170,6.0,9.0,57,0.00,,,-99.99,,2013-04-29 01:12:00,
2013-04-28 20:21:00,67.0,53.0,-100.00,SSE,165,6.0,7.0,61,0.00,,,-99.99,,2013-04-29 01:21:00,
2013-04-28 20:32:00,65.0,53.0,-100.00,SSE,165,6.0,7.0,64,0.00,,,-99.99,,2013-04-29 01:32:00,
2013-04-28 20:42:00,65.0,53.0,-100.00,SSE,165,6.0,7.0,64,0.00,,,-99.99,,2013-04-29 01:42:00,
2013-04-28 20:52:00,63.0,53.0,-100.00,SSE,165,6.0,8.0,70,0.00,,,-99.99,,2013-04-29 01:52:00,
2013-04-28 21:02:00,62.0,54.0,-100.00,SSE,160,7.0,7.0,74,0.00,,,-99.99,,2013-04-29 02:02:00,
2013-04-28 21:11:00,62.0,54.0,-100.00,SSE,160,7.0,7.0,74,0.00,,,-99.99,,2013-04-29 02:11:00,
2013-04-28 21:22:00,60.0,54.0,-100.00,SSE,160,7.0,8.0,80,0.00,,,-99.99,,2013-04-29 02:22:00,
2013-04-28 21:32:00,60.0,54.0,-100.00,SSE,150,7.0,8.0,80,0.00,,,-99.99,,2013-04-29 02:32:00,
2013-04-28 21:41:00,60.0,54.0,-100.00,SSE,150,7.0,7.0,81,0.00,,,-99.99,,2013-04-29 02:41:00,
2013-04-28 21:52:00,59.0,54.0,-100.00,SSE,160,9.0,9.0,84,0.00,,,-99.99,,2013-04-29 02:52:00,
2013-04-28 22:01:00,59.0,54.0,-100.00,SSE,160,7.0,9.0,84,0.00,,,-99.99,,2013-04-29 03:01:00,
2013-04-28 22:12:00,59.0,54.0,-100.00,SSE,160,7.0,9.0,84,0.00,,,-99.99,,2013-04-29 03:12:00,
2013-04-28 22:21:00,58.0,54.0,-100.00,SSE,155,7.0,9.0,86,0.00,,,-99.99,,2013-04-29 03:21:00,
2013-04-28 22:33:00,58.0,54.0,-100.00,SSE,160,7.0,9.0,87,0.00,,,-99.99,,2013-04-29 03:33:00,
2013-04-28 22:42:00,58.0,54.0,-100.00,SSE,160,7.0,9.0,87,0.00,,,-99.99,,2013-04-29 03:42:00,
2013-04-28 22:53:00,58.0,55.0,-100.00,SSE,165,6.0,7.0,90,0.00,,,-99.99,,2013-04-29 03:53:00,
2013-04-28 23:03:00,59.0,55.0,-100.00,South,170,6.0,9.0,88,0.00,,,-99.99,,2013-04-29 04:03:00,
2013-04-28 23:13:00,59.0,55.0,-100.00,South,170,6.0,9.0,88,0.00,,,-99.99,,2013-04-29 04:13:00,
2013-04-28 23:23:00,58.0,56.0,-100.00,SSE,165,7.0,9.0,91,0.00,,,-99.99,,2013-04-29 04:23:00,
2013-04-28 23:33:00,59.0,56.0,-100.00,SSE,165,7.0,10.0,90,0.00,,,-99.99,,2013-04-29 04:33:00,
2013-04-28 23:43:00,59.0,56.0,-100.00,South,170,7.0,9.0,91,0.00,,,-99.99,,2013-04-29 04:43:00,
2013-04-28 23:52:00,58.0,56.0,-100.00,SSE,165,7.0,11.0,94,0.00,,,-99.99,,2013-04-29 04:52:00,